Wind_Speed
9 4 7 12 12 12 11 10 10 7 9 8 8 15 17 16 14 9 10 12 14 13 21 27 26 26 24 21 20 18 17 10 17 14 12 10 12 12 11 12 14 10 5 7
7 9 13 17 18 12 10 12 12 14 17 9 9 12 12 9 4 16 12 12 14 10 18 23 25 27 27 28 26 24 18 19 17 12 10 9 7 8 11 9 10 4 3 1
11 11 19 21 18 12 11 6 13 13 17 13 11 3 4 12 13 16 17 16 11 15 18 16 21 24 25 29 28 25 21 17 14 11 10 8 6 7 7 4 11 8 2 3
12 14 22 21 16 11 7 5 5 4 17 9 12 6 7 20 15 17 18 18 14 18 16 14 19 20 28 33 30 27 22 17 15 12 13 14 10 5 2 7 7 5 4 3
14 17 19 20 16 7 7 8 6 8 5 5 11 5 9 18 13 10 13 19 17 21 21 19 21 25 29 35 32 28 23 19 18 18 11 11 8 6 8 6 4 7 5 5
13 15 15 16 12 9 6 4 5 7 1 2 7 8 6 15 19 17 14 18 20 23 23 22 32 32 32 34 34 30 26 21 22 17 12 8 5 4 3 0 2 1 5 5
16 20 16 12 9 9 5 4 2 3 1 7 8 7 8 20 19 21 13 14 11 24 24 23 23 27 33 31 35 35 29 24 20 16 13 10 10 8 4 5 4 4 2 3
9 14 17 16 10 11 8 9 6 7 4 10 12 8 6 22 22 20 16 16 15 10 20 23 21 29 36 35 37 37 36 27 21 19 17 13 11 8 9 8 11 7 4 2
10 12 12 11 6 11 10 6 10 3 4 3 4 6 6 13 15 17 17 13 16 16 12 17 23 31 35 35 37 43 38 31 25 21 19 15 10 11 9 7 7 5 3 4
10 7 15 11 10 14 11 8 4 3 2 6 6 2 3 6 10 10 14 14 14 14 17 19 17 27 32 34 38 42 38 35 31 25 22 16 15 14 10 8 7 6 5 5
19 7 13 13 10 10 2 5 4 7 6 5 2 3 4 9 10 10 9 14 15 16 14 16 17 29 33 33 36 38 39 36 32 28 25 18 19 17 13 12 8 7 7 6
23 6 11 16 10 13 9 9 10 5 6 2 5 5 12 11 9 10 8 9 8 11 17 21 23 24 27 32 33 36 35 37 34 28 26 20 19 14 16 15 11 10 9 8
15 13 10 7 12 14 15 11 9 6 4 5 4 3 2 8 8 8 10 8 8 8 12 19 19 21 31 32 34 35 34 35 36 31 27 25 20 19 18 15 12 11 10 11
13 7 8 8 10 11 12 15 8 8 5 6 6 6 6 9 8 5 9 8 8 8 9 18 18 22 33 35 36 35 34 38 37 34 32 28 26 23 20 17 15 14 14 12
14 9 8 8 7 5 8 8 8 8 8 7 5 11 11 12 10 10 8 6 4 4 7 9 14 21 30 31 35 37 35 37 40 38 37 35 29 25 22 19 17 17 16 16
14 6 7 4 3 6 6 10 17 17 11 8 7 7 16 15 7 8 8 8 6 5 7 7 9 15 23 30 34 39 38 40 40 37 37 35 31 28 23 21 21 21 18 17
10 7 4 5 2 4 6 5 5 7 13 11 10 8 9 8 7 7 8 8 5 3 4 5 5 9 25 31 33 35 27 28 37 39 37 34 33 29 27 26 23 21 21 18
4 4 4 4 4 7 6 6 3 15 14 14 9 13 16 11 10 9 9 10 9 7 7 5 5 8 25 28 32 37 43 45 37 37 31 30 29 28 28 27 24 22 20 18
6 5 5 4 5 4 5 8 4 5 3 6 16 9 14 16 12 8 2 7 8 8 3 4 7 16 26 32 36 36 38 39 34 32 31 30 28 29 28 25 22 21 20 19
11 8 5 4 5 1 5 4 6 2 4 2 14 14 7 6 5 3 7 7 6 6 5 3 6 14 26 27 34 35 32 28 26 30 35 30 29 27 25 23 24 24 23 23
3 3 6 5 4 7 9 16 5 6 6 3 7 11 9 6 6 6 9 6 7 8 10 5 3 17 24 28 32 30 29 28 34 34 30 28 27 26 27 27 27 26 24 22
6 3 1 3 4 4 20 12 5 3 6 9 7 3 10 7 5 6 8 2 8 8 7 8 5 18 25 34 35 28 28 33 33 26 24 24 26 28 30 30 25 25 22 10
5 5 2 2 5 5 10 6 14 15 9 9 8 8 8 8 7 6 5 5 5 8 9 10 13 24 27 21 22 24 25 32 34 17 17 20 24 27 27 23 18 9 3 3
5 3 4 2 5 4 6 11 14 14 12 7 8 6 6 4 7 7 7 7 6 11 20 31 31 26 21 19 26 21 15 22 28 32 14 14 14 7 6 7 10 6 5 8
2 1 2 4 7 5 6 5 4 8 12 16 12 8 9 10 8 5 4 8 5 8 13 21 23 21 14 6 10 4 8 11 17 17 16 15 14 18 18 10 7 8 9 3
3 6 4 3 1 4 6 9 8 9 8 9 9 12 9 7 5 8 10 10 10 10 14 17 20 25 17 11 9 10 5 13 22 21 23 18 8 10 8 11 8 7 6 5
Wind_Direction
237 223 239 240 250 253 203 179 117 254 184 138 177 155 172 177 167 172 165 160 166 164 159 159 169 172 171 175 180 185 190 197 186 182 192 211 231 245 253 254 256 268 288 299
224 217 240 244 249 231 240 159 182 217 170 125 173 161 166 74 274 174 174 175 174 159 157 163 169 178 181 181 184 181 173 162 182 190 208 213 232 253 266 269 258 250 263 231
214 210 235 242 251 237 241 191 201 175 178 166 135 112 100 188 216 202 172 176 182 157 156 166 171 179 174 178 172 172 180 188 194 196 203 215 230 254 272 90 140 141 165 335
216 230 227 238 245 219 243 262 285 150 156 180 177 194 188 200 238 199 174 179 174 156 157 150 169 165 161 173 173 174 180 183 187 192 206 214 209 231 177 144 111 73 21 349
214 224 226 236 243 218 218 255 217 259 212 190 193 111 221 191 238 189 181 179 175 166 164 162 167 186 164 170 173 175 180 185 183 183 168 164 136 116 99 112 98 353 359 311
232 222 230 227 244 250 216 233 296 246 178 1 227 160 173 182 201 202 166 175 182 171 172 172 173 183 170 169 174 175 176 177 180 188 189 189 171 164 153 30 346 32 325 339
220 236 240 229 197 243 182 138 281 352 324 230 252 259 201 194 188 189 181 175 181 178 173 177 176 178 169 165 167 172 176 174 185 184 181 179 182 187 197 157 181 167 108 83
213 235 232 226 200 197 207 161 158 203 197 240 246 244 227 187 189 190 181 195 193 164 180 177 176 175 168 168 166 168 175 180 187 186 183 179 180 194 215 219 183 177 228 248
199 239 247 216 180 171 227 174 204 216 250 318 254 164 20 169 186 185 190 189 202 204 174 165 179 172 169 168 168 171 176 180 186 189 186 192 198 190 175 184 205 198 178 193
250 210 232 206 182 234 160 166 241 345 229 285 266 308 222 137 138 148 191 190 206 198 191 173 163 166 172 171 169 174 180 180 183 187 196 204 206 203 201 211 214 211 239 263
235 218 248 184 194 202 143 177 182 175 157 200 266 256 213 137 148 156 166 165 200 186 164 123 149 184 173 169 170 172 178 180 180 187 196 207 212 208 204 210 228 226 242 253
225 201 239 203 197 184 197 185 172 132 275 223 157 248 160 158 147 122 114 129 117 118 166 173 176 178 179 169 170 172 175 177 181 187 191 197 189 205 215 210 214 228 237 257
218 231 243 285 212 187 202 221 188 161 134 237 139 277 92 128 126 127 112 116 153 152 156 178 177 194 180 173 173 172 175 177 181 185 188 192 203 207 206 206 212 229 238 248
199 227 171 212 207 179 200 214 194 169 149 230 205 140 56 72 94 76 115 135 163 182 174 165 172 179 183 179 177 173 175 176 181 186 191 197 200 205 210 210 216 229 233 254
203 206 207 221 238 270 220 188 213 218 217 162 190 150 179 157 157 149 139 123 158 188 211 197 169 181 183 181 176 179 177 174 184 187 192 194 204 207 206 209 216 224 235 243
210 202 160 209 240 236 230 212 207 240 225 245 222 197 190 187 129 142 167 169 177 212 242 210 210 176 184 182 175 179 179 177 183 187 188 198 199 200 209 218 220 226 236 242
147 136 114 183 202 330 317 249 221 246 213 199 232 222 137 141 142 149 147 137 146 212 244 275 233 202 183 183 175 175 157 190 188 189 189 190 192 197 210 218 218 226 233 233
75 90 113 153 127 241 238 309 25 84 46 36 40 154 136 138 151 157 162 163 178 200 224 239 292 199 177 173 162 160 169 187 176 174 182 188 192 200 213 217 218 226 234 234
80 88 61 109 192 213 231 264 114 133 11 48 56 83 141 150 88 32 112 148 156 133 175 219 262 183 163 165 168 162 173 177 174 172 195 195 201 211 216 219 222 228 232 242
79 89 102 84 91 12 246 153 106 76 122 72 81 62 39 90 95 187 96 102 108 147 186 227 272 180 167 165 162 164 169 181 182 191 207 206 207 213 218 220 224 229 232 246
350 34 124 124 106 280 337 299 91 60 253 69 109 121 97 78 171 195 139 155 172 196 188 201 235 163 178 161 154 160 170 188 199 205 209 209 211 217 224 229 227 226 235 230
163 170 217 114 97 265 354 312 97 216 62 95 83 44 112 127 103 132 111 230 225 210 184 188 166 163 162 158 160 154 177 197 207 205 207 212 218 223 228 232 233 223 215 223
41 339 61 99 125 114 251 39 360 28 42 23 42 42 51 44 30 15 3 288 255 223 181 163 107 58 63 123 118 82 46 43 6 180 201 214 224 229 228 231 217 205 316 301
100 267 138 130 13 322 345 51 44 11 9 355 336 14 34 39 24 1 351 308 24 90 94 97 85 69 47 55 107 99 81 51 29 347 29 351 314 262 205 148 160 192 221 248
168 101 56 70 35 18 0 353 185 93 65 355 346 358 5 21 3 312 290 101 110 105 113 110 108 100 116 128 109 94 121 108 184 262 319 292 260 257 248 243 193 228 235 270
197 164 127 156 258 106 280 287 54 36 32 45 350 334 347 6 356 85 98 105 115 111 118 106 118 144 162 174 164 167 170 168 214 242 249 252 251 262 239 187 158 163 178 159
Height
725 747 761 746 735 733 736 747 763 757 745 759 770 775 770 767 771 777 778 778 780 783 787 792 797 800 805 808 813 816 819 822 825 828 830 831 831 832 833 833 834 835 836 835
741 757 731 720 722 725 731 748 757 742 740 753 767 776 766 774 778 768 773 775 776 779 785 790 794 798 802 806 810 813 817 819 823 825 827 829 830 830 830 831 832 833 834 834
747 738 716 723 726 730 734 744 749 751 743 743 764 789 790 768 757 760 759 765 770 774 781 787 792 796 800 805 808 811 814 817 820 823 825 827 828 829 829 829 829 832 833 833
734 716 720 725 730 722 751 715 719 733 753 800 755 822 798 783 773 760 757 761 764 772 775 780 788 793 796 801 805 809 813 815 818 821 823 824 825 826 827 827 829 830 831 832
733 723 722 726 720 709 732 712 722 729 750 756 762 790 779 780 784 763 757 756 757 762 767 773 780 788 793 798 802 806 811 814 816 819 819 821 822 823 825 826 827 827 829 830
714 693 703 708 699 700 700 716 726 732 754 797 764 777 797 778 760 746 738 747 747 754 760 765 771 780 787 793 797 803 809 812 814 815 817 818 820 821 823 824 824 826 828 828
714 709 694 689 715 703 708 740 792 801 799 802 752 766 770 738 730 733 743 740 742 742 750 757 763 772 781 786 791 797 804 810 812 814 816 817 818 819 820 821 823 825 826 826
744 748 705 685 706 726 727 744 791 809 807 783 739 768 748 711 709 716 723 725 727 740 741 750 757 765 771 778 782 789 797 804 809 812 814 815 816 818 819 819 821 822 823 825
736 735 686 682 680 697 725 747 725 761 750 779 754 724 710 707 716 718 722 725 726 729 738 748 752 759 765 772 777 780 788 795 804 809 811 813 815 816 817 818 819 820 821 823
708 741 692 682 679 684 709 703 753 766 791 801 767 752 756 731 726 721 727 729 726 728 733 732 748 754 761 767 770 776 782 787 795 802 808 810 812 814 815 816 816 817 819 820
689 717 704 686 701 714 713 727 727 743 762 793 792 773 720 723 720 721 716 717 721 726 731 736 745 752 754 760 766 770 777 782 789 795 801 806 809 811 811 812 814 815 817 817
675 703 721 701 675 672 690 711 725 769 763 756 769 764 695 705 707 711 713 714 712 717 726 728 731 742 752 754 761 764 770 776 784 790 794 801 805 808 810 810 811 813 814 814
669 698 730 718 691 677 696 697 706 715 730 758 776 762 705 703 708 709 716 714 714 713 721 729 737 740 742 747 753 758 764 769 777 784 788 794 799 803 804 805 808 810 810 810
656 687 707 730 706 688 706 695 696 713 752 749 751 740 730 723 721 715 710 713 715 715 716 718 723 729 735 739 744 750 756 762 770 776 781 787 792 796 800 800 802 805 805 806
653 698 687 682 674 674 682 689 692 711 718 743 726 733 725 712 713 711 706 708 711 713 717 716 720 721 726 733 738 744 750 757 764 768 773 778 785 790 794 796 797 798 800 800
640 688 674 680 668 674 688 682 689 692 697 701 706 720 689 686 697 700 703 708 711 713 713 712 714 715 720 725 727 735 742 748 754 764 767 773 780 784 789 791 791 793 795 795
654 672 690 705 674 685 714 688 686 687 679 687 714 698 689 701 703 707 708 707 708 709 710 709 709 711 711 716 722 731 744 759 751 757 762 768 774 778 782 784 786 788 789 791
663 670 683 705 690 734 689 662 669 694 694 686 684 686 682 693 693 696 697 703 705 707 708 705 706 704 706 712 719 728 735 747 751 751 758 763 769 774 777 780 782 784 786 787
656 679 714 717 720 695 680 672 685 692 712 685 685 683 675 678 693 703 692 694 700 699 704 702 702 703 704 706 714 723 731 737 744 747 757 761 765 770 773 776 780 781 782 781
667 674 706 734 748 741 693 670 666 670 725 685 683 686 693 690 725 717 695 695 696 697 698 697 698 700 702 706 712 719 729 737 744 749 752 755 759 764 768 771 773 774 775 777
698 695 712 732 743 730 693 687 659 737 725 682 683 688 693 708 705 697 690 693 693 694 693 694 695 699 702 707 712 723 733 739 741 745 748 753 757 761 765 766 767 768 769 772
699 709 714 710 735 747 697 686 701 703 687 684 686 686 686 691 693 691 686 693 693 693 690 693 696 698 701 705 713 724 732 734 739 743 748 753 756 757 759 759 761 765 763 771
720 722 712 710 724 720 730 713 696 687 691 693 690 687 687 689 688 689 687 688 691 691 690 694 701 710 712 710 722 734 740 737 747 738 746 751 753 753 754 755 759 764 766 768
701 715 723 713 722 720 715 702 703 699 697 699 698 694 692 693 686 687 688 691 693 693 698 700 703 712 727 735 727 730 734 734 744 744 748 745 753 755 757 756 759 763 762 763
708 708 716 720 715 713 714 712 707 702 699 707 705 695 692 691 693 693 694 698 699 698 701 697 701 706 714 732 728 731 729 725 738 756 747 748 745 752 753 755 757 758 758 760
700 713 721 738 728 725 731 715 704 709 709 705 711 708 699 697 698 696 699 702 702 701 699 700 704 709 717 721 728 729 724 728 738 745 745 746 743 745 747 751 753 757 758 761